Flag for Canada Weather past 2 weeks in Caledon, Ontario, Canada

Now
32 °F

Dense fog.


Feels Like: 32 °F
Forecast: 40 / 73 °F
Wind: No wind

Location: Borden

Current Time: May 6, 2015 at 5:33:41 AM

Latest Report: May 6, 2015 at 5:00 AM


Visibility: 0 mi

Pressure: 30.31 "Hg

Humidity: 100%

Dew point: 32 °F

Location of CaledonLocation

Historic Weather in Caledon — Graph

°F

Caledon temperature yesterday

Maximum temperature yesterday: 66 °F (at 4:00 PM)
Minimum temperature yesterday: 34 °F (at 3:00 AM)
Average temperature yesterday: 51 °F

Past Weeks' High & Low Weather Summary

 TemperatureHumidityPressure
High81 °F (May 3, 5:00 PM)100% (Apr 22, 5:55 AM)30.33 "Hg (Apr 22, 5:55 AM)
Low18 °F (Apr 25, 5:00 AM)23% (May 3, 6:00 PM)29.48 "Hg (Apr 21, 1:56 PM)
Average45 °F71%29.91 "Hg
* Reported Apr 21 4:00 AM — May 6 4:02 AM, Caledon, Weather by CustomWeather, © 2015

Note: Actual official high and low records may vary slightly from our data, if they occured in-between our weather recording intervals... More about our weather records

Advertising

Caledon weather history for previous 24 hours

 ConditionsComfort  
Time TempWeatherWind HumidityBarometerVisibility
4:02 AM
Wed, May 6
34 °FPassing clouds.No wind93%30.30 "Hg9 mi
3:04 AM36 °FClear.No wind100%30.29 "Hg1 mi
3:01 AM36 °FPassing clouds.2 mph100%30.29 "Hg1 mi
2:03 AM37 °FPassing clouds.2 mph100%30.30 "Hg1 mi
1:03 AM37 °FClear.No wind100%30.30 "Hg2 mi
12:00 AM41 °FClear.No wind100%30.31 "Hg5 mi
11:00 PM
Tue, May 5
43 °FClear.No wind100%30.31 "Hg9 mi
10:00 PM46 °FClear.2 mph93%30.30 "Hg9 mi
9:00 PM54 °FSunny.5 mph77%30.29 "Hg9 mi
8:00 PM61 °FSunny.6 mph63%30.26 "Hg9 mi
7:00 PM64 °FPassing clouds.6 mph56%30.25 "Hg9 mi
6:00 PM64 °FSunny.5 mph52%30.26 "Hg9 mi
5:00 PM66 °FPassing clouds.5 mph52%30.26 "Hg9 mi
4:00 PM66 °FSunny.2 mph52%30.28 "Hg9 mi
3:00 PM64 °FSunny.5 mph56%30.30 "Hg9 mi
2:00 PM63 °FSunny.8 mph59%30.31 "Hg9 mi
1:00 PM63 °FPassing clouds.7 mph64%30.32 "Hg9 mi
12:00 PM61 °FSunny.8 mph63%30.33 "Hg9 mi
11:00 AM59 °FSunny.6 mph63%30.33 "Hg9 mi
10:00 AM54 °FPassing clouds.No wind63%30.32 "Hg9 mi
9:00 AM50 °FSunny.No wind67%30.32 "Hg9 mi
8:00 AM43 °FSunny.No wind87%30.32 "Hg9 mi
7:00 AM37 °FClear.2 mph93%30.30 "Hg9 mi
6:00 AM34 °FClear.No wind93%30.29 "Hg9 mi
5:00 AM34 °FClear.3 mph93%30.27 "Hg9 mi
Weather by CustomWeather, © 2015

See weather overviewHow to use our weather pages